When you browse on this site, cookies collect data to enhance your experience and personalize the content and advertising you see.
Visit our Privacy Policy to learn more. By continuing to use the site, you agree to this use of cookies and data.
  • In Spain
  • List of Countries
  • For 7 days
  • Water Temperature
  • Satellite Maps
  • Weather Map
  • Weather Widgets
  • user-avatar
    Login

    Hourly Weather Bamako

    Today, 21 April, Sunday

    Time Temperature Precipitation Wind Pressure Humidity
    00:00 +36°C° 0 mm 3 mps 722 mmHg 28%
    01:00 +36°C° 0 mm 3 mps 722 mmHg 31%
    02:00 +36°C° 0 mm 3 mps 722 mmHg 33%
    03:00 +35°C° 0 mm 4 mps 722 mmHg 37%
    04:00 +34°C° 0 mm 4 mps 722 mmHg 41%
    05:00 +34°C° 0 mm 4 mps 722 mmHg 45%
    06:00 +34°C° 0 mm 5 mps 722 mmHg 44%
    07:00 +35°C° 0 mm 5 mps 723 mmHg 43%
    08:00 +36°C° 0 mm 5 mps 723 mmHg 43%
    09:00 +39°C° 0 mm 5 mps 723 mmHg 35%
    10:00 +41°C° 0 mm 4 mps 723 mmHg 27%
    11:00 +42°C° 0 mm 4 mps 723 mmHg 20%
    12:00 +43°C° 0 mm 3 mps 722 mmHg 17%
    13:00 +44°C° 0 mm 3 mps 722 mmHg 15%
    14:00 +45°C° 0 mm 2 mps 721 mmHg 12%
    15:00 +45°C° 0 mm 2 mps 721 mmHg 11%
    16:00 +43°C° 0 mm 2 mps 721 mmHg 10%
    17:00 +43°C° 0 mm 2 mps 720 mmHg 9%
    18:00 +42°C° 0 mm 1 mps 721 mmHg 10%
    19:00 +41°C° 0 mm 1 mps 721 mmHg 11%
    20:00 +40°C° 0 mm 1 mps 722 mmHg 11%
    21:00 +39°C° 0 mm 1 mps 722 mmHg 13%
    22:00 +37°C° 0 mm 1 mps 722 mmHg 14%
    23:00 +35°C° 0 mm 1 mps 722 mmHg 15%

    Tomorrow, 22 April, Monday

    Time Temperature Precipitation Wind Pressure Humidity
    00:00 +35°C° 0 mm 1 mps 722 mmHg 16%
    01:00 +34°C° 0 mm 1 mps 721 mmHg 17%
    02:00 +33°C° 0 mm 1 mps 721 mmHg 19%
    03:00 +32°C° 0 mm 1 mps 721 mmHg 20%
    04:00 +32°C° 0 mm 1 mps 721 mmHg 21%
    05:00 +29°C° 0 mm 0 mps 721 mmHg 22%
    06:00 +33°C° 0 mm 1 mps 722 mmHg 19%
    07:00 +36°C° 0 mm 2 mps 723 mmHg 16%
    08:00 +38°C° 0 mm 2 mps 723 mmHg 13%
    09:00 +39°C° 0 mm 3 mps 723 mmHg 11%
    10:00 +40°C° 0 mm 3 mps 723 mmHg 10%
    11:00 +43°C° 0 mm 3 mps 723 mmHg 9%
    12:00 +43°C° 0 mm 3 mps 722 mmHg 9%
    13:00 +44°C° 0 mm 3 mps 721 mmHg 8%
    14:00 +45°C° 0 mm 3 mps 720 mmHg 8%
    15:00 +44°C° 0 mm 3 mps 720 mmHg 8%
    16:00 +44°C° 0 mm 3 mps 720 mmHg 8%
    17:00 +43°C° 0 mm 3 mps 719 mmHg 9%
    18:00 +42°C° 0 mm 3 mps 720 mmHg 10%
    19:00 +39°C° 0 mm 2 mps 720 mmHg 11%
    20:00 +38°C° 0 mm 2 mps 721 mmHg 12%
    21:00 +37°C° 0 mm 2 mps 721 mmHg 12%
    22:00 +36°C° 0 mm 2 mps 721 mmHg 13%
    23:00 +36°C° 0 mm 2 mps 721 mmHg 13%

    Day after tomorrow, 23 April, Tuesday

    Time Temperature Precipitation Wind Pressure Humidity
    00:00 +35°C° 0 mm 2 mps 721 mmHg 14%
    01:00 +34°C° 0 mm 3 mps 720 mmHg 15%
    02:00 +34°C° 0 mm 3 mps 720 mmHg 15%
    03:00 +32°C° 0 mm 2 mps 720 mmHg 16%
    04:00 +31°C° 0 mm 2 mps 721 mmHg 17%
    05:00 +31°C° 0 mm 1 mps 721 mmHg 18%
    06:00 +32°C° 0 mm 1 mps 722 mmHg 17%
    07:00 +34°C° 0 mm 1 mps 723 mmHg 15%
    08:00 +36°C° 0 mm 1 mps 723 mmHg 14%
    09:00 +38°C° 0 mm 2 mps 723 mmHg 13%
    10:00 +40°C° 0 mm 2 mps 723 mmHg 12%
    11:00 +42°C° 0 mm 3 mps 723 mmHg 11%
    12:00 +42°C° 0 mm 2 mps 722 mmHg 10%
    13:00 +43°C° 0 mm 2 mps 721 mmHg 9%
    14:00 +44°C° 0 mm 1 mps 720 mmHg 9%
    15:00 +43°C° 0 mm 1 mps 720 mmHg 9%
    16:00 +43°C° 0 mm 1 mps 720 mmHg 9%
    17:00 +43°C° 0 mm 1 mps 720 mmHg 9%
    18:00 +41°C° 0 mm 1 mps 720 mmHg 10%
    19:00 +40°C° 0 mm 1 mps 721 mmHg 11%
    20:00 +35°C° 0 mm 0 mps 721 mmHg 12%
    21:00 +34°C° 0 mm 0 mps 721 mmHg 13%
    22:00 +34°C° 0 mm 0 mps 721 mmHg 13%
    23:00 +35°C° 0 mm 1 mps 721 mmHg 14%

    24 April, Wednesday

    Time Temperature Precipitation Wind Pressure Humidity
    00:00 +34°C° 0 mm 1 mps 721 mmHg 14%
    01:00 +34°C° 0 mm 1 mps 721 mmHg 15%
    02:00 +33°C° 0 mm 1 mps 720 mmHg 15%
    03:00 +32°C° 0 mm 1 mps 721 mmHg 16%
    04:00 +31°C° 0 mm 1 mps 721 mmHg 17%
    05:00 +31°C° 0 mm 2 mps 721 mmHg 18%
    06:00 +32°C° 0 mm 2 mps 722 mmHg 16%
    07:00 +35°C° 0 mm 2 mps 723 mmHg 14%
    08:00 +37°C° 0 mm 3 mps 724 mmHg 12%
    09:00 +38°C° 0 mm 3 mps 723 mmHg 11%
    10:00 +40°C° 0 mm 3 mps 723 mmHg 9%
    11:00 +43°C° 0 mm 3 mps 723 mmHg 8%
    12:00 +43°C° 0 mm 2 mps 722 mmHg 8%
    13:00 +43°C° 0 mm 2 mps 722 mmHg 8%
    14:00 +45°C° 0 mm 2 mps 721 mmHg 8%
    15:00 +44°C° 0 mm 1 mps 721 mmHg 8%
    16:00 +43°C° 0 mm 1 mps 721 mmHg 9%
    17:00 +43°C° 0 mm 1 mps 721 mmHg 9%
    18:00 +42°C° 0 mm 1 mps 721 mmHg 10%
    19:00 +40°C° 0 mm 1 mps 722 mmHg 11%
    20:00 +37°C° 0 mm 1 mps 722 mmHg 12%
    21:00 +37°C° 0 mm 1 mps 722 mmHg 12%
    22:00 +36°C° 0 mm 1 mps 722 mmHg 13%
    23:00 +35°C° 0 mm 1 mps 722 mmHg 13%

    25 April, Thursday

    Time Temperature Precipitation Wind Pressure Humidity
    00:00 +35°C° 0 mm 2 mps 722 mmHg 13%
    01:00 +35°C° 0 mm 2 mps 721 mmHg 14%
    02:00 +34°C° 0 mm 2 mps 721 mmHg 14%
    03:00 +32°C° 0 mm 2 mps 721 mmHg 15%
    04:00 +31°C° 0 mm 2 mps 722 mmHg 15%
    05:00 +31°C° 0 mm 2 mps 722 mmHg 16%
    06:00 +34°C° 0 mm 2 mps 723 mmHg 15%
    07:00 +36°C° 0 mm 3 mps 723 mmHg 14%
    08:00 +37°C° 0 mm 3 mps 724 mmHg 13%
    09:00 +39°C° 0 mm 3 mps 724 mmHg 13%
    10:00 +42°C° 0 mm 4 mps 724 mmHg 14%
    11:00 +43°C° 0 mm 4 mps 724 mmHg 14%
    12:00 +44°C° 0 mm 4 mps 723 mmHg 15%
    13:00 +44°C° 0 mm 4 mps 722 mmHg 15%
    14:00 +45°C° 0 mm 4 mps 721 mmHg 15%
    15:00 +44°C° 0 mm 3 mps 721 mmHg 16%
    16:00 +44°C° 0 mm 3 mps 721 mmHg 16%
    17:00 +43°C° 0 mm 2 mps 721 mmHg 17%
    18:00 +42°C° 0 mm 2 mps 721 mmHg 18%
    19:00 +40°C° 0 mm 2 mps 722 mmHg 20%
    20:00 +39°C° 0 mm 1 mps 723 mmHg 21%
    21:00 +38°C° 0 mm 2 mps 723 mmHg 28%
    22:00 +37°C° 0 mm 3 mps 723 mmHg 36%
    23:00 +36°C° 0 mm 4 mps 723 mmHg 43%

    26 April, Friday

    Time Temperature Precipitation Wind Pressure Humidity
    00:00 +36°C° 0 mm 3 mps 722 mmHg 42%
    01:00 +35°C° 0 mm 3 mps 722 mmHg 40%
    02:00 +35°C° 0 mm 2 mps 722 mmHg 38%
    03:00 +34°C° 0 mm 2 mps 722 mmHg 38%
    04:00 +34°C° 0 mm 2 mps 722 mmHg 38%
    05:00 +34°C° 0 mm 2 mps 722 mmHg 38%
    06:00 +35°C° 0 mm 3 mps 723 mmHg 37%
    07:00 +36°C° 0 mm 4 mps 723 mmHg 36%
    08:00 +37°C° 0 mm 5 mps 724 mmHg 35%
    09:00 +40°C° 0 mm 4 mps 723 mmHg 32%
    10:00 +42°C° 0 mm 4 mps 723 mmHg 28%
    11:00 +43°C° 0 mm 3 mps 723 mmHg 25%
    12:00 +44°C° 0 mm 3 mps 722 mmHg 23%
    13:00 +45°C° 0 mm 3 mps 721 mmHg 21%
    14:00 +45°C° 0 mm 3 mps 720 mmHg 18%
    15:00 +45°C° 0 mm 2 mps 720 mmHg 19%
    16:00 +43°C° 0 mm 2 mps 720 mmHg 19%
    17:00 +43°C° 0 mm 2 mps 720 mmHg 19%
    18:00 +42°C° 0 mm 2 mps 721 mmHg 21%
    19:00 +41°C° 0 mm 2 mps 721 mmHg 22%
    20:00 +41°C° 0 mm 2 mps 722 mmHg 23%
    21:00 +40°C° 0.2 mm 2 mps 722 mmHg 25%
    22:00 +39°C° 0.2 mm 3 mps 722 mmHg 27%
    23:00 +38°C° 0.2 mm 4 mps 722 mmHg 29%
    Show more